Regional Weather Roundup
Issued by NWS

Home | Current Version | Previous Version | Graphics & Text | Print | Product List | Glossary On
Versions: 1 2 3 4 5 6 7 8 9 10 11 12 13 14 15 16 17 18 19 20 21 22 23 24 25 26 27 28 29 30 31 32 33 34 35 36 37 38 39 40 41 42 43 44 45 46 47 48 49 50
702
ASUS43 KMPX 270210
RWRMN
WEATHER ROUNDUP FOR MINNESOTA
NATIONAL WEATHER SERVICE TWIN CITIES/CHANHASSEN MN
900 PM CDT SAT MAY 26 2018


NOTE: "FAIR" INDICATES FEW OR NO CLOUDS BELOW 12,000 FEET WITH NO
SIGNIFICANT WEATHER AND/OR OBSTRUCTIONS TO VISIBILITY. N/A MEANS
CURRENT SKY AND/OR WEATHER CONDITIONS ARE NOT AVAILABLE.

MNZ060>063-068>070-270300-
   Twin Cities Metro

CITY           SKY/WX    TMP DP  RH WIND       PRES   REMARKS
TWIN CITIES    FAIR      88  52  29 CALM      29.71R
ST PAUL        FAIR      79  58  48 CALM      29.70R
CRYSTAL        FAIR      80  57  45 CALM      29.70R
BLAINE         CLEAR     82  57  42 CALM      29.71R
LAKEVILLE      FAIR      75  64  69 CALM      29.73R
EDEN PRAIRIE   FAIR      83  56  39 CALM      29.71R
SOUTH ST PAUL  FAIR      81  60  48 CALM      29.71R
LAKE ELMO      FAIR      77  57  50 N5        29.73R
$$
MNZ001>005-007-008-013>017-022>024-027-028-270300-
   Northwest Minnesota

CITY           SKY/WX    TMP DP  RH WIND       PRES   REMARKS
BEMIDJI        FAIR      74  57  56 N3        29.73R
HALLOCK        FAIR      79  57  47 NE7       29.69R
ROSEAU         FAIR      75  63  64 CALM      29.71S
WARROAD        FAIR      70  63  78 CALM      29.72R
THIEF RVR FALL FAIR      77  59  53 NE6       29.72R
CROOKSTON      FAIR      81  55  41 NE3       29.70R
FOSSTON        FAIR      75  48  38 CALM      29.73R
DETROIT LAKES  FAIR      81  45  28 CALM      29.74S
MOORHEAD       FAIR      84  43  23 N5        29.70R
PARK RAPIDS    FAIR      80  52  37 CALM      29.73R
MAHNOMEN       FAIR      78  52  39 N5        29.72R
$$
MNZ006-009>011-018-025>026-270300-
   North Central Minnesota

CITY           SKY/WX    TMP DP  RH WIND       PRES   REMARKS
BAUDETTE         N/A    N/A N/A N/A MISG      29.71
FLAG ISLAND    FAIR      72  59  64 CALM      29.70R
INTL FALLS     FAIR      70  58  65 CALM      29.71R
WASKISH        FAIR      75  63  64 CALM      29.72R
BIG FORK       FAIR      72  57  60 CALM      29.73R
LONGVILLE      FAIR      70  57  64 CALM      29.73R
GRAND RAPIDS   FAIR      71  60  68 CALM      29.75R
ORR            FAIR      68  59  73 CALM      29.70R
COOK           FAIR      72  61  68 CALM      29.73R
WALKER         FAIR      74  55  51 CALM      29.73R
$$
MNZ012-019>021-037-270300-
   Northeast Minnesota

CITY           SKY/WX    TMP DP  RH WIND       PRES   REMARKS
DULUTH         FAIR      60  55  83 E8        29.75R
ELY            FAIR      72  57  60 CALM      29.73S
HIBBING        FAIR      71  56  58 CALM      29.72S
EVELETH        FAIR      72  57  60 CALM      29.74S
DULUTH HARBOR  CLOUDY    50  48  93 E6        29.76S FOG
TWO HARBORS    FAIR      59  54  82 NE3       29.74R
SILVER BAY     FAIR      61  57  88 CALM      29.74S
GRAND MARAIS     N/A     44  41  89 CALM      29.73S
G MARAIS ARPRT MOCLDY    59  55  88 CALM      29.77R FOG
$$
MNZ029>031-032-039>041-046>048-054>057-064-270300-
   West Central Minnesota

CITY           SKY/WX    TMP DP  RH WIND       PRES   REMARKS
FERGUS FALLS   FAIR      82  50  32 CALM      29.66R
WHEATON        CLEAR     84  45  24 CALM      29.72
MORRIS         CLEAR     84  46  26 N5        29.72R
ALEXANDRIA     FAIR      80  53  39 CALM      29.75R
ELBOW LAKE     FAIR      83  50  31 W3        29.73R
WADENA         FAIR      75  57  53 CALM      29.73R
GLENWOOD       FAIR      82  54  36 CALM      29.75R
BENSON         CLEAR     81  52  36 W5        29.74R
ORTONVILLE     CLEAR     84  50  30 S3        29.73R
MADISON        CLEAR     90  46  22 CALM      29.74R
WILLMAR        FAIR      81  52  36 CALM      29.76R
$$
MNZ033>034-036-042>043-049>051-058-059-270300-
   Central Minnesota

CITY           SKY/WX    TMP DP  RH WIND       PRES   REMARKS
ST CLOUD       FAIR      77  52  41 CALM      29.71R
SAUK CENTRE    FAIR      77  54  45 CALM      29.74R
PAYNESVILLE    FAIR      77  59  54 CALM      29.74R
AITKIN         FAIR      66  55  68 CALM      29.72R
PINE RIVER     FAIR      72  54  53 CALM      29.77R
BRAINERD       FAIR      75  59  57 CALM      29.72S
STAPLES        FAIR      75  52  43 CALM      29.73R
LONG PRAIRIE   FAIR      79  54  41 CALM      29.75R
LITTLE FALLS   FAIR      73  54  49 CALM      29.73R
LITCHFIELD     FAIR      82  52  34 CALM      29.74R
BUFFALO        FAIR      82  53  36 CALM      29.72S
MAPLE LAKE     FAIR      77  58  52 CALM      29.73R
HUTCHINSON     FAIR      81  60  49 CALM      29.74R
$$
MNZ037-044-045-052-053-270300-
   East Central Minnesota

CITY           SKY/WX    TMP DP  RH WIND       PRES   REMARKS
PRINCETON      FAIR      75  54  46 CALM      29.72R
MORA           FAIR      72  55  56 CALM      29.74R
CAMBRIDGE      FAIR      79  57  47 CALM      29.72R
RUSH CITY      FAIR      72  55  55 CALM      29.71S
MOOSE LAKE     FAIR      72  57  60 CALM      29.70R
HINCKLEY       FAIR      70  64  83 CALM      29.72R
CLOQUET        FAIR      61  52  72 E3        29.75R
MCGREGOR       FAIR      77  54  44 CALM      29.73R
$$
MNZ071>073-080-081-089-090-097-098-270300-
   Southwest Minnesota

CITY           SKY/WX    TMP DP  RH WIND       PRES   REMARKS
MONTEVIDEO     CLEAR     84  46  26 CALM      29.74R
CANBY          CLEAR     80  63  54 CALM      29.75S
MARSHALL       CLEAR     84  54  35 N6        29.75R
REDWOOD FALLS  CLEAR     83  56  39 NW6       29.72S
OLIVIA         CLEAR     79  54  41 W3        29.73R
PIPESTONE      CLEAR     86  52  30 E3        29.79R
WINDOM         CLEAR     81  52  36 CALM      29.76R
WORTHINGTON    CLEAR     86  52  30 N7        29.78R
JACKSON        CLEAR     77  57  50 CALM      29.78R
TRACY          CLEAR     83  52  33 CALM      29.76R
SLAYTON        CLEAR     84  46  26 CALM      29.79R
$$
MNZ065>067-074>077-082>085-091>093-270300-
   South Central Minnesota

CITY           SKY/WX    TMP DP  RH WIND       PRES   REMARKS
MANKATO        FAIR      83  58  42 NE5       29.73S
NEW ULM        CLEAR     84  46  26 NW5       29.73R
ST JAMES       CLEAR     84  52  32 CALM      29.75R
FAIRMONT       CLEAR     83  55  38 N3        29.75R
GLENCOE        FAIR      82  58  43 CALM      29.72S
FARIBAULT      FAIR      77  64  65 CALM      29.74R
WASECA         FAIR      82  52  34 NE5       29.75R
ALBERT LEA     FAIR      77  61  57 CALM      29.75R
$$
MNZ078>079-086>088-094>096-270300-
   Southeast Minnesota

CITY           SKY/WX    TMP DP  RH WIND       PRES   REMARKS
ROCHESTER      FAIR      83  61  47 SE3       29.75R
RED WING       FAIR      75  59  57 N5        29.70R
STANTON        FAIR      77  62  59 CALM      29.72R
DODGE CENTER   FAIR      81  55  41 CALM      29.76R
WINONA         FAIR      77  66  69 NW3       29.72R
AUSTIN         FAIR      81  57  44 CALM      29.74R
PRESTON        FAIR      81  60  50 E6        29.76R
$$
ABBREVIATIONS USED IN REMARKS
   TC - TEMPERATURES IN CELSIUS
  WCI - WIND CHILL INDEX
   HX - HEAT INDEX
  VSB - VISIBILITY
$$




USA.gov is the U.S. government's official web portal to all federal, state and local government web resources and services.